| time (UTC) | temp F | wind direction | speed knots | gust knots | rain 1hr in | rain 24hr in | rain mn in | humidity % | barometer mb |
| 20260901080114 | 61 | 247 | 0.9 | 3.5 | 0.00 | 0.00 | 0.00 | 57 | 1023.0 |
| 20260901074616 | 62 | 227 | 0.9 | 5.2 | 0.00 | 0.00 | 0.00 | 57 | 1023.0 |
| 20260901073108 | 63 | 0 | 0.9 | 6.1 | 0.00 | 0.00 | 0.00 | 55 | 1023.0 |
| 20260901071608 | 63 | 210 | 0.9 | 7.0 | 0.00 | 0.00 | 0.00 | 54 | 1023.1 |
| 20260901070103 | 64 | 272 | 1.7 | 5.2 | 0.00 | 0.00 | 0.00 | 53 | 1023.0 |
| 20260901064604 | 63 | 267 | 0.9 | 6.1 | 0.00 | 0.00 | 0.00 | 52 | 1023.1 |
| 20260901063105 | 64 | 182 | 0.9 | 7.0 | 0.00 | 0.00 | 0.00 | 52 | 1023.0 |
| 20260901061605 | 64 | 205 | 1.7 | 5.2 | 0.00 | 0.00 | 0.00 | 52 | 1023.1 |
| 20260901060105 | 64 | 0 | 0.9 | 5.2 | 0.00 | 0.00 | 0.00 | 52 | 1023.2 |
| 20260901054602 | 64 | 267 | 1.7 | 5.2 | 0.00 | 0.00 | 0.00 | 51 | 1023.5 |
| 20260901053114 | 64 | 248 | 0.9 | 4.3 | 0.00 | 0.00 | 0.00 | 51 | 1023.5 |
| 20260901051614 | 64 | 185 | 0.9 | 6.1 | 0.00 | 0.00 | 0.00 | 51 | 1023.7 |
| 20260901050108 | 64 | 247 | 0.9 | 3.5 | 0.00 | 0.00 | 0.00 | 51 | 1023.8 |
| 20260901044605 | 63 | 238 | 0.9 | 5.2 | 0.00 | 0.00 | 0.00 | 51 | 1023.8 |
| 20260901043109 | 63 | 245 | 0.9 | 5.2 | 0.00 | 0.00 | 0.00 | 52 | 1023.9 |
| 20260901041622 | 64 | 245 | 1.7 | 3.5 | 0.00 | 0.00 | 0.00 | 48 | 1024.1 |
| 20260901040138 | 63 | 158 | 0.9 | 2.6 | 0.00 | 0.00 | 0.00 | 49 | 1024.2 |
| 20260901034611 | 63 | 71 | 0.0 | 4.3 | 0.00 | 0.00 | 0.00 | 51 | 1024.4 |
| 20260901033106 | 63 | 207 | 0.9 | 6.1 | 0.00 | 0.00 | 0.00 | 52 | 1024.5 |
| 20260901031604 | 63 | 180 | 0.9 | 3.5 | 0.00 | 0.00 | 0.00 | 53 | 1024.6 |
| 20260901030111 | 62 | 0 | 0.0 | 1.7 | 0.00 | 0.00 | 0.00 | 52 | 1024.6 |
| 20260901024608 | 61 | 250 | 0.0 | 1.7 | 0.00 | 0.00 | 0.00 | 53 | 1024.6 |
| 20260901023107 | 62 | 0 | 0.9 | 3.5 | 0.00 | 0.00 | 0.00 | 53 | 1024.6 |
| 20260901021606 | 61 | 0 | 0.9 | 3.5 | 0.00 | 0.00 | 0.00 | 54 | 1024.7 |
| 20260901014609 | 60 | 131 | 1.7 | 7.0 | 0.00 | 0.00 | 0.00 | 59 | 1024.8 |
| 20260901013104 | 59 | 0 | 0.9 | 5.2 | 0.00 | 0.00 | 0.00 | 63 | 1024.9 |
| 20260901011603 | 59 | 76 | 0.9 | 5.2 | 0.00 | 0.00 | 0.00 | 67 | 1024.9 |
| 20260901010115 | 59 | 0 | 0.9 | 3.5 | 0.00 | 0.00 | 0.00 | 70 | 1024.9 |
| 20260901004606 | 58 | 0 | 0.9 | 4.3 | 0.00 | 0.00 | 0.00 | 73 | 1024.8 |
| 20260901003110 | 55 | 0 | 0.0 | 2.6 | 0.00 | 0.00 | 0.00 | 80 | 1024.5 |
| 20260901001604 | 53 | 0 | 0.0 | 3.5 | 0.00 | 0.00 | 0.00 | 84 | 1024.6 |
| 20260901000113 | 52 | 0 | 0.9 | 3.5 | 0.00 | 0.00 | 0.00 | 88 | 1024.5 |
| 20260831234601 | 50 | 103 | 0.0 | 1.7 | 0.00 | 0.00 | 0.00 | 90 | 1024.3 |
| 20260831233125 | 49 | 0 | 0.0 | 0.9 | 0.00 | 0.00 | 0.00 | 91 | 1024.4 |
| 20260831231608 | 48 | 0 | 0.0 | 0.0 | 0.00 | 0.00 | 0.00 | 91 | 1024.3 |
| 20260831230115 | 47 | 0 | 0.0 | 0.0 | 0.00 | 0.00 | 0.00 | 91 | 1024.0 |
| 20260831224601 | 45 | 0 | 0.0 | 0.0 | 0.00 | 0.00 | 0.00 | 91 | 1023.8 |
| 20260831223112 | 46 | 0 | 0.0 | 0.0 | 0.00 | 0.00 | 0.00 | 91 | 1023.5 |
| 20260831221601 | 46 | 0 | 0.0 | 0.0 | 0.00 | 0.00 | 0.00 | 90 | 1023.4 |
| 20260831220059 | 46 | 0 | 0.0 | 0.0 | 0.00 | 0.00 | 0.00 | 90 | 1023.5 |
| 20260831214611 | 46 | 0 | 0.0 | 0.0 | 0.00 | 0.00 | 0.00 | 90 | 1023.3 |
| 20260831213110 | 46 | 0 | 0.0 | 0.0 | 0.00 | 0.00 | 0.00 | 89 | 1023.2 |
| 20260831211607 | 47 | 0 | 0.0 | 0.0 | 0.00 | 0.00 | 0.00 | 90 | 1023.1 |
| 20260831210100 | 47 | 0 | 0.0 | 0.0 | 0.00 | 0.00 | 0.00 | 89 | 1023.1 |
| 20260831204609 | 48 | 0 | 0.0 | 0.0 | 0.00 | 0.00 | 0.00 | 89 | 1022.9 |
| 20260831203116 | 49 | 0 | 0.0 | 0.0 | 0.00 | 0.00 | 0.00 | 88 | 1022.6 |
| 20260831201607 | 48 | 0 | 0.0 | 0.0 | 0.00 | 0.00 | 0.00 | 87 | 1022.6 |
| 20260831200110 | 49 | 0 | 0.0 | 0.0 | 0.00 | 0.00 | 0.00 | 87 | 1022.4 |
| 20260831194642 | 50 | 0 | 0.0 | 0.0 | 0.00 | 0.00 | 0.00 | 87 | 1022.4 |
| 20260831193106 | 49 | 0 | 0.0 | 0.0 | 0.00 | 0.00 | 0.00 | 86 | 1022.3 |
| 20260831191607 | 50 | 0 | 0.0 | 0.0 | 0.00 | 0.00 | 0.00 | 85 | 1022.3 |
| 20260831190109 | 51 | 0 | 0.0 | 0.0 | 0.00 | 0.00 | 0.00 | 84 | 1022.3 |
| 20260831184607 | 51 | 0 | 0.0 | 0.0 | 0.00 | 0.00 | 0.00 | 82 | 1022.4 |
| 20260831183110 | 52 | 0 | 0.0 | 0.9 | 0.00 | 0.00 | 0.00 | 81 | 1022.4 |
| 20260831181610 | 53 | 0 | 0.0 | 0.9 | 0.00 | 0.00 | 0.00 | 80 | 1022.5 |
| 20260831180126 | 53 | 0 | 0.0 | 1.7 | 0.00 | 0.00 | 0.00 | 79 | 1022.6 |
| 20260831174603 | 54 | 0 | 0.0 | 2.6 | 0.00 | 0.00 | 0.00 | 79 | 1022.6 |
| 20260831173104 | 53 | 0 | 0.0 | 2.6 | 0.00 | 0.00 | 0.00 | 79 | 1022.6 |
| 20260831171605 | 54 | 0 | 0.0 | 0.9 | 0.00 | 0.00 | 0.00 | 79 | 1022.7 |
| 20260831164604 | 54 | 171 | 0.0 | 3.5 | 0.00 | 0.00 | 0.00 | 79 | 1022.8 |
| 20260831163103 | 54 | 0 | 0.9 | 3.5 | 0.00 | 0.00 | 0.00 | 79 | 1022.8 |
| 20260831161606 | 54 | 131 | 0.9 | 4.3 | 0.00 | 0.00 | 0.00 | 79 | 1022.9 |
| 20260831160106 | 54 | 0 | 0.0 | 6.1 | 0.00 | 0.00 | 0.00 | 79 | 1022.9 |
| 20260831154634 | 54 | 0 | 0.9 | 5.2 | 0.00 | 0.00 | 0.00 | 81 | 1023.0 |
| 20260831153108 | 53 | 236 | 0.9 | 9.6 | 0.00 | 0.00 | 0.00 | 84 | 1023.1 |
| 20260831151622 | 53 | 127 | 0.9 | 8.7 | 0.00 | 0.00 | 0.00 | 86 | 1023.1 |
| 20260831150109 | 54 | 209 | 2.6 | 7.8 | 0.00 | 0.00 | 0.00 | 88 | 1023.0 |
| 20260831144607 | 54 | 125 | 1.7 | 12.2 | 0.00 | 0.00 | 0.00 | 89 | 1022.9 |
| 20260831143108 | 56 | 72 | 1.7 | 5.2 | 0.00 | 0.00 | 0.00 | 89 | 1022.8 |
| 20260831141606 | 57 | 0 | 0.9 | 6.1 | 0.00 | 0.00 | 0.00 | 90 | 1022.4 |
| 20260831140106 | 57 | 195 | 0.9 | 7.0 | 0.00 | 0.00 | 0.00 | 89 | 1022.2 |
| 20260831134606 | 57 | 211 | 1.7 | 7.8 | 0.00 | 0.00 | 0.00 | 89 | 1022.0 |
| 20260831133108 | 58 | 0 | 0.9 | 6.1 | 0.00 | 0.00 | 0.00 | 89 | 1021.9 |
| 20260831131614 | 58 | 130 | 1.7 | 7.8 | 0.00 | 0.00 | 0.00 | 89 | 1021.5 |
| 20260831130114 | 59 | 264 | 1.7 | 7.8 | 0.00 | 0.00 | 0.00 | 89 | 1021.2 |
| 20260831124609 | 59 | 187 | 0.9 | 7.8 | 0.00 | 0.00 | 0.00 | 89 | 1021.0 |
| 20260831123104 | 60 | 0 | 0.0 | 3.5 | 0.00 | 0.00 | 0.00 | 89 | 1020.7 |
| 20260831121604 | 61 | 0 | 0.9 | 3.5 | 0.00 | 0.00 | 0.00 | 88 | 1020.6 |
| 20260831120114 | 62 | 236 | 0.9 | 6.1 | 0.00 | 0.00 | 0.00 | 86 | 1020.5 |
| 20260831114611 | 63 | 240 | 2.6 | 9.6 | 0.00 | 0.00 | 0.00 | 80 | 1020.3 |
| 20260831113104 | 64 | 250 | 0.9 | 7.0 | 0.00 | 0.00 | 0.00 | 78 | 1020.1 |
| 20260831111600 | 64 | 294 | 1.7 | 6.1 | 0.00 | 0.00 | 0.00 | 77 | 1020.0 |
| 20260831110111 | 64 | 279 | 0.9 | 6.1 | 0.00 | 0.00 | 0.00 | 78 | 1019.9 |
| 20260831104613 | 64 | 272 | 1.7 | 4.3 | 0.00 | 0.00 | 0.00 | 77 | 1019.9 |
| 20260831103104 | 64 | 248 | 0.0 | 7.0 | 0.00 | 0.00 | 0.00 | 77 | 1019.8 |
| 20260831101604 | 64 | 259 | 1.7 | 7.0 | 0.00 | 0.00 | 0.00 | 76 | 1019.7 |
| 20260831100124 | 64 | 247 | 1.7 | 7.0 | 0.00 | 0.00 | 0.00 | 77 | 1019.6 |
| 20260831094602 | 64 | 256 | 1.7 | 3.5 | 0.00 | 0.00 | 0.00 | 78 | 1019.5 |
| 20260831093108 | 65 | 273 | 1.7 | 7.0 | 0.00 | 0.00 | 0.00 | 77 | 1019.3 |
| 20260831091604 | 65 | 318 | 0.9 | 4.3 | 0.00 | 0.00 | 0.00 | 77 | 1019.0 |
| 20260831090107 | 66 | 227 | 1.7 | 7.8 | 0.00 | 0.00 | 0.00 | 74 | 1018.9 |
| 20260831084611 | 66 | 255 | 1.7 | 6.1 | 0.00 | 0.00 | 0.00 | 71 | 1018.8 |
| 20260831083106 | 67 | 331 | 1.7 | 5.2 | 0.00 | 0.00 | 0.00 | 67 | 1018.7 |
| 20260831081602 | 68 | 271 | 0.9 | 7.8 | 0.00 | 0.00 | 0.00 | 66 | 1018.6 |